THOR 7

Last updated on Sun Jun 21 2026 00:03:06 GMT+0000 (Coordinated Universal Time)

1 40613U 15022A 26171.24928350 -.00000013 00000+0 00000+0 0 9997 2 40613 0.0114 300.6565 0002381 143.1475 273.7553 1.00269946 40841
UTC large
Height (km)
Speed (km/s)
/
Latitude / Longitude
Inclination (degrees)
Orbital Period (minutes)
Azimuth
Elevation
Range (km)
Doppler Factor

Next 0 passes for location: London (51.5072 / 0.1276)

No passes found over London.
THOR 7